• In Uzbekistan
  • List of Countries
  • For 7 days
  • Water Temperature
  • Weather Map
  • Weather Widgets
  • user-avatar
    Login

    Hourly Weather Bishkek

    Today, 16 September, Monday

    Time Temperature Precipitation Wind Pressure Humidity
    00:00 -6°C° 1.5 mm 2 mps 487 mmHg 88%
    01:00 -4°C° 1.5 mm 1 mps 487 mmHg 87%
    02:00 -4°C° 1.5 mm 1 mps 487 mmHg 85%
    03:00 -6°C° 0.1 mm 1 mps 487 mmHg 85%
    04:00 -7°C° 0.1 mm 2 mps 486 mmHg 85%
    05:00 -8°C° 0 mm 2 mps 486 mmHg 86%
    06:00 -7°C° 0 mm 2 mps 487 mmHg 84%
    07:00 -6°C° 0 mm 2 mps 488 mmHg 83%
    08:00 -5°C° 0 mm 2 mps 489 mmHg 81%
    09:00 -4°C° 0.1 mm 2 mps 489 mmHg 79%
    10:00 -5°C° 0.1 mm 3 mps 489 mmHg 78%
    11:00 -4°C° 0 mm 3 mps 489 mmHg 75%
    12:00 -3°C° 0.2 mm 2 mps 489 mmHg 73%
    13:00 -2°C° 0.2 mm 2 mps 489 mmHg 71%
    14:00 0°C° 0.2 mm 1 mps 489 mmHg 69%
    15:00 -1°C° 0.2 mm 1 mps 489 mmHg 70%
    16:00 -1°C° 0.2 mm 1 mps 489 mmHg 71%
    17:00 -1°C° 0.2 mm 1 mps 489 mmHg 72%
    18:00 -2°C° 0 mm 1 mps 488 mmHg 73%
    19:00 -3°C° 0 mm 1 mps 488 mmHg 74%
    20:00 -4°C° 0 mm 1 mps 487 mmHg 75%
    21:00 -4°C° 0 mm 1 mps 487 mmHg 74%
    22:00 -4°C° 0 mm 1 mps 487 mmHg 74%
    23:00 -6°C° 0 mm 1 mps 487 mmHg 74%

    Tomorrow, 17 September, Tuesday

    Time Temperature Precipitation Wind Pressure Humidity
    00:00 -6°C° 0 mm 1 mps 487 mmHg 75%
    01:00 -6°C° 0 mm 1 mps 487 mmHg 76%
    02:00 -7°C° 0 mm 1 mps 486 mmHg 77%
    03:00 -7°C° 0 mm 1 mps 487 mmHg 77%
    04:00 -7°C° 0 mm 1 mps 487 mmHg 77%
    05:00 -7°C° 0 mm 1 mps 487 mmHg 78%
    06:00 -6°C° 0 mm 1 mps 488 mmHg 76%
    07:00 -4°C° 0 mm 1 mps 489 mmHg 74%
    08:00 -2°C° 0 mm 1 mps 491 mmHg 72%
    09:00 -1°C° 0 mm 1 mps 491 mmHg 71%
    10:00 -3°C° 0 mm 2 mps 492 mmHg 71%
    11:00 -2°C° 0 mm 2 mps 492 mmHg 70%
    12:00 -1°C° 0 mm 2 mps 492 mmHg 68%
    13:00 +1°C° 0 mm 1 mps 492 mmHg 66%
    14:00 +2°C° 0 mm 1 mps 492 mmHg 65%
    15:00 +1°C° 0 mm 1 mps 492 mmHg 64%
    16:00 +1°C° 0 mm 1 mps 492 mmHg 63%
    17:00 0°C° 0 mm 1 mps 492 mmHg 62%
    18:00 -3°C° 0 mm 2 mps 491 mmHg 62%
    19:00 -5°C° 0 mm 3 mps 490 mmHg 62%
    20:00 -7°C° 0 mm 4 mps 489 mmHg 62%
    21:00 -7°C° 0 mm 4 mps 489 mmHg 61%
    22:00 -7°C° 0 mm 4 mps 489 mmHg 59%
    23:00 -7°C° 0 mm 5 mps 489 mmHg 58%

    Day after tomorrow, 18 September, Wednesday

    Time Temperature Precipitation Wind Pressure Humidity
    00:00 -7°C° 0 mm 5 mps 489 mmHg 58%
    01:00 -7°C° 0 mm 5 mps 488 mmHg 57%
    02:00 -7°C° 0 mm 5 mps 488 mmHg 57%
    03:00 -7°C° 0 mm 5 mps 488 mmHg 55%
    04:00 -7°C° 0 mm 5 mps 488 mmHg 54%
    05:00 -7°C° 0 mm 5 mps 488 mmHg 53%
    06:00 -5°C° 0 mm 4 mps 489 mmHg 52%
    07:00 -3°C° 0 mm 4 mps 490 mmHg 51%
    08:00 -2°C° 0 mm 4 mps 490 mmHg 50%
    09:00 -1°C° 0 mm 4 mps 491 mmHg 50%
    10:00 +1°C° 0 mm 4 mps 492 mmHg 50%
    11:00 +3°C° 0 mm 4 mps 492 mmHg 50%
    12:00 +3°C° 0 mm 4 mps 492 mmHg 50%
    13:00 +4°C° 0 mm 3 mps 492 mmHg 50%
    14:00 +4°C° 0 mm 3 mps 492 mmHg 50%
    15:00 +4°C° 0 mm 3 mps 492 mmHg 49%
    16:00 +4°C° 0 mm 2 mps 491 mmHg 48%
    17:00 +4°C° 0 mm 2 mps 491 mmHg 47%
    18:00 +2°C° 0 mm 3 mps 490 mmHg 46%
    19:00 0°C° 0 mm 3 mps 490 mmHg 44%
    20:00 -2°C° 0 mm 4 mps 489 mmHg 43%
    21:00 -2°C° 0 mm 4 mps 489 mmHg 43%
    22:00 -2°C° 0 mm 4 mps 489 mmHg 43%
    23:00 -2°C° 0 mm 4 mps 489 mmHg 43%

    19 September, Thursday

    Time Temperature Precipitation Wind Pressure Humidity
    00:00 -1°C° 0 mm 3 mps 489 mmHg 43%
    01:00 -1°C° 0 mm 3 mps 489 mmHg 43%
    02:00 -1°C° 0 mm 2 mps 489 mmHg 43%
    03:00 -2°C° 0 mm 2 mps 489 mmHg 43%
    04:00 -2°C° 0 mm 2 mps 489 mmHg 43%
    05:00 -2°C° 0 mm 2 mps 489 mmHg 43%
    06:00 -1°C° 0 mm 2 mps 490 mmHg 44%
    07:00 +2°C° 0 mm 2 mps 491 mmHg 45%
    08:00 +3°C° 0 mm 2 mps 492 mmHg 47%
    09:00 +4°C° 0 mm 2 mps 493 mmHg 48%
    10:00 +5°C° 0 mm 2 mps 493 mmHg 50%
    11:00 +6°C° 0 mm 2 mps 494 mmHg 51%
    12:00 +6°C° 0 mm 2 mps 494 mmHg 50%
    13:00 +7°C° 0 mm 2 mps 494 mmHg 49%
    14:00 +8°C° 0 mm 1 mps 494 mmHg 49%
    15:00 +7°C° 0 mm 1 mps 494 mmHg 48%
    16:00 +7°C° 0 mm 1 mps 493 mmHg 47%
    17:00 +6°C° 0 mm 1 mps 493 mmHg 47%
    18:00 +4°C° 0 mm 2 mps 492 mmHg 47%
    19:00 +2°C° 0 mm 2 mps 491 mmHg 47%
    20:00 0°C° 0 mm 3 mps 490 mmHg 47%
    21:00 0°C° 0 mm 3 mps 490 mmHg 46%
    22:00 0°C° 0 mm 3 mps 490 mmHg 45%
    23:00 -1°C° 0 mm 4 mps 490 mmHg 45%

    20 September, Friday

    Time Temperature Precipitation Wind Pressure Humidity
    00:00 -1°C° 0 mm 4 mps 490 mmHg 45%
    01:00 -1°C° 0 mm 3 mps 490 mmHg 45%
    02:00 -1°C° 0 mm 3 mps 490 mmHg 45%
    03:00 -1°C° 0 mm 3 mps 490 mmHg 46%
    04:00 -1°C° 0 mm 3 mps 490 mmHg 47%
    05:00 -1°C° 0 mm 3 mps 490 mmHg 48%
    06:00 0°C° 0 mm 3 mps 491 mmHg 47%
    07:00 +2°C° 0 mm 2 mps 492 mmHg 46%
    08:00 +4°C° 0 mm 2 mps 493 mmHg 45%
    09:00 +4°C° 0 mm 2 mps 493 mmHg 47%
    10:00 +5°C° 0 mm 2 mps 494 mmHg 48%
    11:00 +6°C° 0 mm 2 mps 494 mmHg 49%
    12:00 +6°C° 0 mm 2 mps 494 mmHg 48%
    13:00 +7°C° 0 mm 2 mps 494 mmHg 48%
    14:00 +7°C° 0 mm 2 mps 494 mmHg 48%
    15:00 +6°C° 0 mm 2 mps 494 mmHg 50%
    16:00 +6°C° 0 mm 2 mps 493 mmHg 52%
    17:00 +5°C° 0 mm 2 mps 493 mmHg 54%
    18:00 +4°C° 0 mm 2 mps 492 mmHg 57%
    19:00 +3°C° 0 mm 1 mps 491 mmHg 60%
    20:00 +2°C° 0 mm 1 mps 491 mmHg 62%
    21:00 +1°C° 0 mm 1 mps 491 mmHg 61%
    22:00 -1°C° 0 mm 2 mps 490 mmHg 59%
    23:00 -1°C° 0 mm 2 mps 490 mmHg 57%

    21 September, Saturday

    Time Temperature Precipitation Wind Pressure Humidity
    00:00 -1°C° 0 mm 2 mps 490 mmHg 57%
    01:00 -1°C° 0 mm 2 mps 490 mmHg 56%
    02:00 -1°C° 0 mm 2 mps 490 mmHg 56%
    03:00 -1°C° 0 mm 3 mps 490 mmHg 56%
    04:00 -1°C° 0 mm 3 mps 490 mmHg 55%
    05:00 -1°C° 0 mm 3 mps 490 mmHg 55%
    06:00 0°C° 0 mm 3 mps 491 mmHg 52%
    07:00 +3°C° 0 mm 2 mps 492 mmHg 50%
    08:00 +4°C° 0 mm 2 mps 493 mmHg 47%
    09:00 +5°C° 0 mm 2 mps 493 mmHg 46%
    10:00 +5°C° 0 mm 3 mps 494 mmHg 45%
    11:00 +7°C° 0 mm 3 mps 494 mmHg 44%
    12:00 +8°C° 0 mm 2 mps 494 mmHg 42%
    13:00 +8°C° 0 mm 2 mps 494 mmHg 39%
    14:00 +9°C° 0 mm 2 mps 494 mmHg 37%
    15:00 +8°C° 0 mm 2 mps 493 mmHg 38%
    16:00 +9°C° 0 mm 1 mps 493 mmHg 39%
    17:00 +8°C° 0 mm 1 mps 492 mmHg 40%
    18:00 +6°C° 0 mm 2 mps 492 mmHg 39%
    19:00 +3°C° 0 mm 3 mps 491 mmHg 37%
    20:00 +2°C° 0 mm 3 mps 490 mmHg 36%
    21:00 +1°C° 0 mm 4 mps 490 mmHg 36%
    22:00 +1°C° 0 mm 4 mps 490 mmHg 35%
    23:00 +1°C° 0 mm 4 mps 490 mmHg 35%
    Show more